Tracking 19576 objects as of 17-Feb-2019
HD Live streaming from Space Station
objects crossing your sky now

SL-18 DEB

Track SL-18 DEB now!
10-day predictions


NORAD ID: 28283
Int'l Code: 1993-014L
Perigee: 570.7 km
Apogee: 650.3 km
Inclination: 75.7 °
Period: 96.8 minutes
Semi major axis: 6981 km
RCS: 0.0138 m2 (small)
Launch date: March 25, 1993
Source: Commonwealth of Independent States (former USSR) (CIS)
Launch site: PLESETSK MISSILE AND SPACE COMPLEX (PKMTR)

Note: This is SATELLITE DEBRIS
aabbcc
Your satellite tracking list
Your tracking list is empty




NASA's NSSDC Master Catalog

Two Line Element Set (TLE):
1 28283U 93014L   19046.89715432  .00003243  00000-0  34276-3 0  9996
2 28283  75.7443 236.0568 0056999 194.3855 165.5522 14.88274646796860
Source of the keplerian elements: AFSPC